Location: Chavannes
(47.1090°N, 0.2226°W)
Time: 15:00:18
(UTC+00:00)

Cosmos 2369 - Pass Details

Date: 16 October 2021
Orbit: 838 x 857 km, 71.0° (Epoch: 07 December)

Event Time Altitude Azimuth Distance (km) Brightness Sun altitude
Rises 18:43:38 0° 210° (SSW) 3,380 7.2 -16.4°
Reaches altitude 10° 18:46:04 10° 212° (SSW) 2,451 6.5 -16.9°
Maximum altitude 18:51:41 75° 298° (WNW) 876 3.9 -17.8°
Drops below altitude 10° 18:57:23 10° 24° (NNE) 2,479 6.0 -18.8°
Sets 18:59:51 0° 27° (NNE) 3,421 6.7 -19.2°
